Theta_e
337 337 336 335 336 336 336 335 335 333 332 330 330 329 329 329 327 325 323 323 322 320 320 320 320 316 317 318 320 320 322 322
337 337 338 338 337 336 336 335 333 332 331 330 329 328 328 327 326 324 323 322 321 320 320 319 318 317 317 319 320 320 319 322
337 337 337 336 337 336 335 334 332 331 330 329 328 328 329 327 326 323 323 321 320 320 319 318 317 316 317 318 319 319 320 325
337 336 336 336 335 335 335 334 333 332 330 329 330 329 328 329 326 322 320 321 320 319 316 315 317 317 319 319 321 320 323 322
338 337 337 335 335 335 335 335 333 332 331 331 329 330 330 328 325 322 323 322 321 319 319 321 321 318 318 320 319 321 319 320
339 338 338 335 335 336 336 335 334 332 331 331 329 328 328 327 324 324 324 324 322 321 322 322 321 320 320 319 319 319 319 319
339 339 339 336 335 335 336 335 333 333 331 330 328 328 328 328 326 326 324 325 323 323 323 321 320 320 320 320 319 319 318 319
339 339 339 337 336 336 336 335 334 332 331 330 329 329 328 327 327 326 324 324 323 322 322 322 321 320 319 319 319 318 319 318
336 340 339 337 337 336 336 335 333 332 331 330 329 329 328 327 326 326 324 324 323 322 322 322 321 320 319 318 319 319 319 319
333 338 339 338 337 337 336 335 334 332 331 331 329 329 328 327 326 325 323 323 323 323 323 322 322 320 319 318 318 318 319 319
330 334 337 337 337 337 336 335 333 332 331 331 330 329 328 327 325 325 324 324 323 323 323 323 322 321 320 319 318 318 318 317
317 324 332 335 336 336 335 334 334 332 331 331 330 329 328 327 325 325 324 323 323 323 323 323 323 322 320 319 319 318 318 316
310 316 323 328 334 335 335 334 333 333 332 331 331 330 328 327 325 325 324 323 323 323 324 324 323 323 322 320 320 320 319 318
305 307 313 320 324 331 334 333 332 332 332 332 331 330 329 327 325 324 324 322 323 324 324 323 323 322 321 321 322 321 320 319
302 303 307 314 316 325 333 333 333 333 331 330 330 329 329 328 326 324 324 322 323 324 324 324 323 322 322 321 323 323 320 320
305 302 303 308 314 318 329 333 333 332 331 327 328 330 329 329 327 323 323 323 322 324 324 324 324 323 323 322 321 322 318 320
305 306 302 304 310 312 320 332 332 333 332 332 331 330 330 330 329 325 323 323 323 323 324 324 324 324 323 323 322 322 321 320
304 304 305 301 304 309 311 321 332 332 332 332 331 330 331 330 330 328 324 323 324 324 324 324 324 324 324 324 323 323 322 321
303 303 304 303 300 305 309 317 331 332 332 332 331 330 330 331 331 330 328 325 325 325 324 325 325 325 325 324 323 323 322 322
302 302 302 302 299 300 306 309 320 331 331 332 331 331 330 330 329 330 330 329 327 326 325 325 326 327 326 325 325 324 322 322
Wind_Speed
23 22 21 22 22 22 22 21 20 18 19 22 21 16 14 15 14 14 13 13 14 15 14 13 12 17 17 15 10 12 12 14
23 22 20 18 19 20 20 19 18 18 20 21 20 15 15 13 12 12 13 11 12 14 13 11 13 16 17 21 16 9 12 14
22 22 21 19 18 19 19 18 17 18 19 21 19 13 14 10 14 14 13 13 13 13 15 13 14 18 15 9 6 8 10 13
23 23 24 22 20 20 17 17 16 15 16 17 14 13 13 13 12 12 14 14 12 13 12 16 16 11 8 6 3 8 9 10
24 25 23 22 21 20 18 18 18 16 16 13 12 14 17 14 11 12 12 13 11 12 13 10 9 8 5 4 7 7 8 11
25 25 24 24 23 21 19 18 18 18 17 13 13 13 14 15 12 12 11 12 11 10 7 7 7 5 5 7 5 6 7 8
24 24 24 24 23 22 22 20 20 16 17 14 13 12 14 13 13 14 11 13 11 10 7 8 8 7 7 6 6 5 6 8
26 25 25 24 23 22 20 19 17 19 15 15 14 11 12 12 12 13 13 11 11 10 9 8 8 8 7 7 6 7 6 7
17 26 25 26 24 24 21 19 18 17 15 15 14 13 13 12 13 12 12 12 11 11 10 9 7 8 7 7 7 7 7 6
12 21 27 27 25 23 20 20 19 17 16 15 16 14 13 14 13 13 14 14 13 12 12 10 9 8 8 8 8 7 8 8
8 12 25 29 26 24 21 19 19 18 16 14 16 15 15 15 13 13 15 14 14 12 11 10 10 8 8 8 8 8 8 9
16 11 10 10 23 23 22 22 21 18 17 15 15 16 16 16 14 14 15 15 14 13 11 10 10 9 8 8 7 8 9 9
22 19 11 8 14 23 24 24 21 16 15 16 17 17 17 17 15 16 17 16 15 13 11 11 12 9 8 7 9 10 11 11
22 22 18 12 7 7 24 25 26 24 21 16 18 20 20 19 18 19 20 18 16 14 13 12 13 12 12 8 6 11 15 16
23 20 21 16 12 11 19 24 20 24 27 20 17 25 23 22 22 20 21 21 19 18 17 16 14 14 16 10 5 5 6 13
18 21 18 19 14 12 11 27 20 26 27 30 31 27 26 24 22 22 22 23 20 20 18 17 17 14 13 18 18 10 3 4
19 18 20 19 19 13 14 27 31 24 28 28 30 27 30 28 27 25 23 23 22 20 20 20 18 18 15 15 16 16 15 8
20 20 19 21 20 19 14 21 31 26 23 25 27 28 30 31 27 27 25 25 23 23 22 21 21 19 21 18 17 15 16 14
20 21 22 20 23 20 17 14 20 24 25 26 29 28 26 28 30 27 27 26 25 25 26 25 24 24 22 22 20 19 16 15
20 21 22 21 21 21 17 15 10 29 25 26 30 29 31 29 30 28 27 26 26 25 24 24 26 26 26 25 24 21 21 21
Wind_Direction
151 154 157 162 164 160 162 159 154 150 141 142 141 139 139 133 127 126 134 131 131 125 125 126 117 134 131 124 106 89 103 105
154 156 157 156 162 163 163 159 156 154 146 146 143 137 139 137 133 136 131 137 135 133 129 137 124 131 120 108 107 95 104 104
159 159 160 161 161 162 166 161 159 153 145 148 138 132 142 142 143 144 148 143 142 136 140 147 136 131 121 119 94 102 106 94
164 165 166 164 164 166 161 160 159 157 151 153 147 146 150 140 137 145 137 136 139 148 143 136 125 138 124 80 77 116 105 112
173 172 168 169 168 170 166 170 167 164 161 164 148 146 140 141 141 141 136 137 137 140 141 159 179 156 172 116 123 132 125 119
175 176 172 174 171 178 172 173 176 168 170 174 165 167 165 155 164 169 157 172 157 167 175 161 159 161 154 141 149 133 131 128
181 180 180 180 176 181 177 175 176 173 178 181 177 176 176 164 179 171 183 176 179 178 165 163 163 164 161 161 154 138 145 135
186 185 187 188 184 181 180 177 177 182 180 186 185 187 184 183 179 185 187 188 183 178 170 169 168 170 171 172 169 160 167 163
227 191 193 192 191 184 182 185 184 179 185 187 191 187 185 186 188 196 192 192 183 176 174 176 173 183 180 183 180 180 175 182
284 222 197 194 193 187 191 187 186 186 189 187 196 193 190 191 190 198 194 191 188 185 185 183 182 190 185 197 195 193 192 193
335 253 219 198 192 192 188 186 187 187 191 190 196 199 196 198 191 197 191 194 193 191 196 198 189 194 197 206 206 207 208 207
0 345 288 231 202 196 193 191 192 185 190 199 198 202 202 198 196 198 191 201 198 200 203 206 211 207 212 206 216 226 225 225
2 352 345 329 233 202 192 185 193 197 199 202 208 205 200 203 201 197 198 204 202 202 206 210 217 208 217 229 234 234 236 237
360 352 342 325 323 221 191 187 207 205 199 206 205 212 205 202 207 199 200 204 203 204 209 211 217 210 217 228 233 222 234 236
354 350 343 326 310 310 206 207 206 203 206 205 217 220 208 207 209 206 202 206 203 206 207 213 213 214 219 237 226 251 178 205
349 345 341 335 315 289 278 198 199 204 212 217 211 216 217 216 211 213 209 205 206 203 213 214 226 215 218 238 263 298 262 195
341 340 341 336 324 303 330 199 200 201 203 206 208 210 211 214 209 210 214 209 211 208 211 213 224 234 217 229 243 248 252 264
337 335 336 333 329 312 298 324 205 199 205 213 209 209 210 214 214 208 211 215 210 212 213 216 222 233 239 232 232 233 238 238
332 331 328 330 329 325 310 316 225 217 205 215 213 210 218 210 210 213 210 214 217 215 217 217 217 225 234 241 242 242 242 252
326 325 322 324 326 323 315 304 305 224 234 223 223 216 216 211 210 216 218 217 218 222 226 222 223 226 229 234 241 241 239 243